Theta_e
322 324 325 325 323 323 322 325 324 323 323 325 326 327 327 327 326 326 326 325 325 326 325 319 320 324 327 330 330 330 329 329 329 328 327 327 326 326 327 326 327 327 326 325
324 325 321 320 322 324 325 325 325 323 322 324 325 326 325 324 325 325 325 324 323 324 324 324 320 322 327 327 329 330 329 329 329 329 328 327 326 325 325 324 325 326 326 326
322 320 320 321 321 322 322 323 324 323 322 324 325 327 324 323 324 324 323 323 323 323 323 323 321 319 325 327 328 330 329 329 329 328 328 328 327 325 325 324 324 325 325 325
322 320 321 321 322 322 323 320 321 322 322 325 322 328 322 320 319 320 322 323 324 325 324 324 323 322 320 326 328 328 329 329 329 329 328 328 327 326 325 325 324 324 324 324
319 320 322 322 321 321 322 320 323 322 323 323 324 327 322 320 320 320 321 321 322 324 324 324 324 323 321 321 327 328 328 330 330 329 329 328 328 327 327 326 326 325 325 324
317 317 319 318 320 320 320 323 323 323 324 326 325 326 327 323 322 321 320 320 321 322 323 323 323 323 322 320 323 327 328 329 330 329 329 329 328 328 328 328 328 327 327 325
315 316 318 319 320 320 321 324 326 328 327 328 322 327 326 322 321 321 322 322 321 320 321 321 322 322 321 320 319 323 328 328 329 329 328 328 328 328 329 329 329 328 328 327
318 319 316 318 320 321 322 322 324 326 326 323 321 327 324 320 320 321 321 320 319 318 318 318 318 319 320 318 316 318 322 327 327 329 328 328 329 329 329 329 329 329 329 328
318 317 316 315 317 318 322 324 321 324 318 324 323 322 321 319 320 320 319 318 317 314 313 311 311 315 315 317 317 315 319 323 326 327 328 328 328 329 329 329 329 329 329 328
316 318 318 316 317 317 318 319 323 324 327 324 319 321 321 320 319 319 317 314 312 311 309 308 307 307 309 310 312 314 315 320 323 325 327 327 328 328 329 329 329 329 328 328
315 316 319 318 320 320 319 319 319 319 321 321 320 318 317 318 319 318 317 312 311 309 309 307 307 304 304 304 307 309 310 315 319 323 325 326 327 327 328 328 328 328 328 327
315 317 318 317 317 317 318 320 320 322 321 323 322 323 313 315 316 314 314 310 308 310 310 309 308 304 305 303 303 305 308 312 316 319 322 325 326 326 327 327 327 327 326 327
315 316 317 320 316 315 320 319 319 319 319 323 325 321 315 314 315 314 315 315 313 313 311 312 315 307 305 304 303 304 304 309 314 318 321 323 324 325 326 326 326 326 325 326
313 314 315 319 319 319 321 320 320 320 323 323 323 321 319 317 317 317 317 317 316 314 311 311 314 314 307 304 303 303 303 304 310 316 320 322 323 324 324 324 324 324 324 324
314 317 314 315 316 317 319 319 321 322 321 322 321 320 319 318 317 318 318 318 317 316 315 314 314 314 313 304 303 303 303 303 305 312 317 321 322 323 323 323 323 323 323 322
313 315 315 314 315 316 317 316 319 320 319 320 321 321 318 318 318 318 316 316 317 317 316 315 315 313 311 304 302 302 303 303 303 307 313 317 320 321 321 321 320 321 322 322
315 312 314 315 312 313 317 315 315 316 317 319 321 319 317 317 316 316 316 316 316 316 315 315 314 313 311 307 303 303 304 304 304 304 310 313 316 318 318 320 320 320 321 322
312 313 314 315 312 316 313 310 313 315 315 315 316 316 316 316 315 315 314 314 314 313 312 313 314 313 310 306 302 303 304 304 305 304 304 308 313 315 317 317 318 318 318 318
311 312 313 315 313 309 308 306 310 314 315 313 314 314 313 312 311 313 305 303 303 303 304 306 308 310 308 305 302 303 303 304 305 305 304 304 304 305 306 306 307 306 306 306
307 307 311 308 311 310 306 306 306 311 313 304 305 305 304 308 311 311 304 301 300 299 298 299 300 301 301 300 299 301 302 304 304 305 306 306 305 304 304 304 304 304 306 307
310 309 311 308 308 308 304 304 304 315 308 302 302 302 302 305 305 302 299 298 297 296 295 294 294 295 293 294 295 297 298 300 301 302 302 304 305 306 305 304 304 305 305 305
307 308 308 306 308 307 302 304 309 304 300 299 297 298 296 296 297 297 296 296 295 294 292 290 291 291 289 290 292 295 296 295 296 296 298 300 302 305 304 303 302 302 303 304
305 304 306 307 307 301 301 301 295 295 297 295 294 292 291 293 293 293 293 293 292 289 288 288 288 289 288 286 287 291 289 291 293 295 294 295 297 299 300 301 301 302 303 303
301 299 304 303 303 301 301 292 291 290 290 289 288 288 289 290 289 289 289 289 288 287 286 285 286 286 286 285 285 286 288 290 291 292 294 294 296 298 299 300 302 303 302 301
303 302 303 304 303 300 293 289 287 287 286 286 285 285 286 287 288 287 286 286 286 285 284 283 283 284 284 283 285 286 287 289 290 291 292 293 295 296 295 296 298 300 301 301
300 303 305 305 298 299 294 285 283 285 284 284 283 284 283 285 285 284 285 284 284 283 282 281 281 281 281 282 284 285 287 288 290 290 290 292 292 292 292 292 292 293 296 297
Wind_Speed
13 9 15 13 19 16 15 10 17 15 11 17 20 23 20 21 21 21 21 21 20 22 24 26 21 23 25 25 28 31 31 33 30 31 30 28 29 30 30 29 28 27 27 26
6 17 17 14 15 15 17 18 18 13 10 15 20 27 23 23 26 23 24 24 24 23 23 23 25 24 26 31 33 32 34 32 35 33 36 33 31 30 29 29 31 30 29 28
17 4 12 12 13 17 18 17 15 19 12 12 15 31 26 24 27 25 25 26 25 25 23 18 22 29 29 30 33 36 39 39 38 39 31 29 23 25 26 31 32 34 32 31
14 13 16 15 16 13 17 16 19 19 12 13 6 15 23 20 23 21 17 17 20 22 21 20 25 29 32 35 34 39 37 39 40 38 34 35 35 28 35 33 33 31 34 33
9 13 18 15 15 16 16 10 13 17 16 12 20 10 15 10 16 19 18 18 21 21 20 22 20 30 31 32 33 37 35 35 39 38 40 38 37 36 28 28 29 32 33 38
16 2 14 22 12 17 4 14 9 3 0 7 15 12 22 13 17 17 21 20 20 18 18 18 25 26 27 29 33 33 34 39 40 40 43 41 40 39 31 31 31 31 34 34
15 19 3 5 17 15 14 5 3 6 5 8 3 12 22 10 12 11 17 18 15 16 16 15 16 16 24 25 31 33 33 36 37 42 43 46 45 42 40 37 35 32 32 33
14 9 22 14 15 7 20 16 7 8 8 6 3 11 8 5 10 16 16 17 16 17 14 16 16 18 23 24 27 30 33 36 37 40 43 44 45 42 41 38 35 35 35 35
11 11 5 12 14 16 8 9 8 4 1 2 7 13 14 15 18 17 13 10 9 11 13 14 13 16 21 20 25 30 33 35 36 39 40 41 42 41 39 40 38 36 34 32
6 6 5 14 14 18 19 8 7 4 4 7 13 13 14 8 15 14 8 1 6 6 12 12 9 13 17 21 23 23 29 32 33 35 37 38 40 41 40 36 36 37 34 31
10 7 5 11 13 16 8 8 10 6 6 8 10 12 8 16 12 10 5 5 7 6 11 12 12 11 11 20 16 13 23 27 29 31 33 34 35 37 36 35 35 34 32 29
22 3 7 17 4 19 22 19 17 8 9 6 4 13 5 7 10 8 8 9 8 8 10 11 12 15 17 17 12 6 12 18 24 26 28 32 33 32 34 36 34 32 31 31
12 6 4 4 6 3 16 20 18 14 2 8 7 12 3 2 7 3 9 12 11 11 14 14 13 9 13 19 24 15 14 17 22 24 26 29 30 31 32 32 32 30 31 32
16 6 12 11 1 4 5 18 17 16 7 18 13 27 20 14 17 20 21 21 17 15 14 13 15 13 12 17 16 23 20 18 17 20 23 26 29 30 29 28 28 30 31 29
12 7 13 12 3 1 3 9 18 18 24 9 25 22 27 18 16 16 19 21 21 17 15 15 16 16 16 14 16 19 23 21 18 17 19 24 24 25 25 25 26 28 31 32
7 3 4 5 12 11 9 13 15 20 23 21 29 23 25 25 21 21 19 17 19 19 17 18 18 17 16 14 18 17 17 17 16 19 19 19 21 23 25 25 26 28 29 30
12 6 6 5 7 7 10 22 21 20 18 23 21 28 18 23 17 17 19 17 20 21 22 20 19 18 21 19 20 13 12 10 11 13 18 21 24 25 27 27 26 27 28 28
7 6 4 3 3 6 1 1 19 24 24 22 23 23 23 20 18 17 17 18 18 19 21 20 17 20 22 20 15 12 11 12 8 10 12 16 20 23 24 24 25 25 25 26
6 5 4 4 6 7 10 7 7 10 9 12 22 19 20 15 11 13 12 16 15 19 18 21 28 28 26 21 18 12 11 14 16 12 11 11 12 15 17 19 19 19 19 19
3 2 4 4 4 7 2 1 3 6 8 5 3 6 8 6 4 8 16 17 18 22 23 24 28 25 18 19 12 10 13 12 10 14 15 13 12 12 13 14 13 13 13 14
5 2 9 6 6 7 10 8 1 7 1 3 4 6 7 3 4 16 19 17 20 20 25 27 22 18 17 18 16 9 8 11 4 6 9 12 13 13 12 12 14 13 14 13
10 9 7 5 6 11 6 4 8 3 4 3 1 1 4 8 13 11 16 17 17 19 25 24 21 18 17 18 18 14 7 7 6 4 5 5 8 11 13 14 14 15 16 16
7 7 7 11 7 1 2 2 4 2 2 2 1 5 7 10 12 14 14 17 16 18 20 20 20 16 13 17 17 14 11 9 8 3 3 3 5 7 10 13 15 17 16 17
5 5 4 3 6 7 6 7 5 3 3 4 5 6 7 11 13 15 13 15 15 19 19 20 17 14 14 15 15 13 14 10 6 5 4 4 6 9 11 13 16 18 17 15
3 11 7 4 3 4 4 6 4 3 3 4 5 6 7 9 11 11 13 13 14 19 19 19 18 16 14 13 13 13 13 11 9 6 6 9 11 12 13 12 12 13 14 14
5 6 7 5 2 2 4 5 3 2 3 5 8 10 8 9 12 11 11 13 15 17 19 17 16 17 17 16 15 15 13 10 9 8 8 11 14 16 17 17 19 9 7 9
Wind_Direction
198 205 211 193 224 238 244 271 253 264 275 269 267 269 262 267 263 263 264 266 266 266 263 251 245 227 216 217 215 216 210 213 208 206 206 209 212 216 218 218 220 218 218 217
180 217 216 219 220 226 229 249 249 255 268 277 278 274 271 268 266 261 265 266 263 261 258 251 247 232 226 215 214 213 213 212 208 209 209 214 218 223 224 223 221 221 219 219
203 202 187 189 199 223 234 241 255 257 273 274 294 282 267 255 256 257 252 259 264 262 259 251 239 232 225 224 215 210 210 208 208 212 210 214 220 220 217 219 222 221 219 220
224 212 188 207 224 209 233 232 246 255 261 263 253 284 282 281 267 259 254 251 257 255 251 250 247 240 232 225 219 216 213 211 212 206 206 207 207 209 217 216 218 220 220 220
195 201 209 213 212 219 249 226 248 241 246 265 253 269 271 261 263 264 267 261 262 264 264 258 247 241 234 230 221 221 216 213 210 209 209 208 212 218 221 213 217 217 222 222
222 329 217 225 207 214 201 231 229 240 233 244 230 223 281 258 259 265 270 270 268 272 273 266 260 255 245 231 221 220 221 216 208 206 210 211 213 216 215 213 212 213 216 218
215 227 221 186 207 213 208 155 206 208 199 247 159 193 247 322 299 255 267 268 293 287 283 275 262 254 246 228 214 221 219 219 213 208 210 212 216 216 216 214 212 212 214 215
200 205 212 196 213 190 203 202 219 235 218 231 139 229 262 284 284 261 274 278 291 303 296 279 275 271 256 235 219 222 224 221 215 213 214 215 217 217 218 218 216 216 216 218
190 224 198 206 204 193 168 204 233 272 173 260 231 254 269 251 260 265 271 281 296 312 308 318 316 273 265 251 236 220 224 226 222 218 218 218 218 217 217 218 217 219 219 219
180 221 194 186 195 224 230 161 196 190 242 247 251 267 256 275 282 261 235 305 321 313 327 327 335 305 290 276 260 232 230 228 225 224 221 221 220 219 219 219 217 218 219 218
200 231 144 159 201 188 193 220 223 247 229 238 263 260 264 239 262 278 264 321 310 321 319 333 333 320 288 275 248 217 229 230 228 226 224 224 223 221 220 219 219 219 218 217
206 164 227 227 258 233 201 201 191 203 197 229 278 263 161 238 262 277 302 296 330 299 300 312 321 323 323 312 284 244 249 245 236 232 227 224 223 220 218 217 218 217 218 218
159 196 212 204 255 237 216 214 205 218 116 215 211 253 190 203 289 309 307 308 294 299 309 318 318 315 317 311 309 303 262 247 243 230 226 225 223 221 219 217 215 215 216 216
165 191 218 234 120 143 204 210 196 204 214 236 237 265 256 272 294 293 299 305 303 308 303 306 307 307 295 296 291 287 273 256 245 233 224 224 223 221 220 218 217 216 215 214
177 207 213 227 152 185 208 217 216 216 228 230 248 251 270 272 276 282 289 291 297 299 292 293 296 298 305 289 284 276 267 254 238 224 225 229 226 219 217 218 217 218 219 218
181 192 161 238 219 214 227 238 236 229 235 242 255 264 267 272 278 277 290 301 300 299 299 295 293 288 295 279 283 273 267 263 249 232 224 226 222 217 215 218 219 220 221 223
172 147 158 238 206 215 245 232 226 233 229 234 247 253 267 271 280 296 300 306 300 302 304 302 295 289 288 287 292 278 273 242 239 237 227 227 229 227 226 222 221 224 225 227
158 147 149 221 116 225 267 329 221 223 236 234 250 260 270 287 305 299 295 304 316 322 318 313 307 299 286 290 277 253 239 220 216 245 241 228 225 225 224 221 218 219 221 223
187 144 176 195 201 309 275 224 190 184 238 248 247 271 287 305 289 300 37 354 337 327 322 314 310 307 296 282 271 248 230 223 175 201 230 231 221 217 214 216 217 218 219 222
102 74 163 169 208 232 248 276 200 151 255 86 117 59 20 2 335 321 359 335 327 327 324 327 327 319 312 312 283 242 239 217 232 190 191 203 210 214 209 210 208 205 203 203
150 157 211 196 227 271 250 234 17 193 211 120 24 22 14 356 300 307 317 324 330 331 332 335 339 342 350 342 325 299 299 296 272 221 207 196 196 197 203 202 197 193 184 181
167 175 198 183 230 256 204 142 216 92 103 141 139 81 310 288 292 303 318 325 333 337 341 344 342 349 350 350 342 331 336 318 307 309 259 223 201 192 194 194 183 174 169 167
191 192 183 196 208 49 123 83 116 64 59 48 325 351 334 316 322 327 325 327 332 336 337 340 337 338 360 358 358 347 346 331 306 261 298 227 181 184 180 180 180 177 182 178
226 174 217 152 201 219 151 94 102 68 31 12 7 347 346 323 328 328 331 330 327 333 335 336 339 344 348 358 356 349 339 330 312 285 218 210 183 170 178 189 192 188 185 182
175 163 174 246 243 140 104 100 101 85 34 353 349 343 334 324 318 325 323 325 325 325 332 336 334 334 334 340 345 341 338 331 303 267 223 193 174 170 159 163 178 192 190 195
194 172 195 211 120 320 92 114 90 87 351 344 340 335 333 319 314 322 312 315 320 323 326 329 329 327 325 331 338 338 334 325 297 261 210 184 165 152 137 121 96 108 168 182